Starlink 11349

operational
NORAD ID: 61544 Int'l Des: 2024-184 Owner: SPXS Country: US Constellation: starlink
LEOCIRCULAR

Starlink 11349について

説明を読み込み中...

リアルタイム位置

3D地球を読み込み中...

次回通過

高度履歴

Altitude vs Time

uPlot chart will show altitude changes over time

軌道要素

1 61544U 24184N 25352.94591706 -.00000448 00000-0 11662-5 0 9995
2 61544 53.1612 274.4428 0001536 98.1686 261.9506 15.69711931 67739
Epoch: Dec 18, 2025 • Age: 31 hours

現在のステータス

高度 359.8 km
速度 7.70 km/s
衛星直下点 4.88°N, 94.72°W
打ち上げ日 Oct 15, 2024
運用期間 1.1 years
タイプ internet

技術仕様

分類 Payload
質量 960.00 kg
乾燥質量 910.00 kg
総質量 960.00 kg
長さ 0.30 m
直径 4.10 m
スパン 29.00 m
形状 Box + pan
製造者 SPXS
バスタイプ Starlink V2MD
フェーズステータス In Orbit
所有者/国 SPXS/US

大規模コンステレーション

Loading constellations...